[[{"header":{"parameterUnit":"m.s-1","parameterCategory":1,"la1":30.2991,"la2":30.254,"lo1":-89.0895,"lo2":-89.0444,"dy":0.0017,"dx":0.0017,"nx":28,"ny":28,"refTime":"2023-10-20T21:00:00:Z","depth":0,"parameterNumber":2,"parameterNumberName":"U-component_of_WINDS"},"data":[0,0,0,0,0,0,0,0,0,0,0,0,0,0,0,0,0,0,0,0,0,0,0,0,0,0,0,0,0,0,0,0,0,0,0,0,0,0,0,0,0,0,0,0,0,0,0,0,0,0,0,0,0,0,0,0,0,0,2.1552,2.1552,0,2.1601,2.1602,2.1602,2.1568,2.1567,2.1565,2.1564,2.1616,2.1619,2.1622,0,0,0,0,0,0,0,0,0,0,0,0,0,2.1431,2.1433,2.1552,2.1552,2.1553,2.1601,2.1602,2.1602,2.1568,2.1567,2.1565,2.1563,2.1615,2.1619,2.1622,0,0,0,0,0,0,0,0,0,0,0,0,0,2.1482,2.1434,2.1551,2.1542,2.1541,2.1601,2.1602,2.1602,2.1569,2.1566,2.1564,2.1562,2.1614,2.1618,2.1623,2.1695,0,0,2.1636,2.1637,0,0,0,0,0,0,0,0,2.1479,2.1487,2.1543,2.1542,2.1542,2.1576,2.1578,2.1634,2.1569,2.1558,2.1564,2.1561,2.1605,2.161,2.1624,2.1697,2.17,2.1636,2.1638,2.164,2.1642,0,0,0,0,0,0,0,2.1476,2.1484,2.1571,2.1543,2.1543,2.1536,2.1541,2.1589,2.1594,2.1559,2.1557,2.1563,2.1604,2.162,2.1625,2.17,2.1636,2.164,2.1642,2.1644,2.1837,2.184,0,0,0,0,0,0,2.1473,2.1482,2.157,2.1573,2.1504,2.154,2.1545,2.1567,2.1593,2.1595,2.1565,2.1561,2.1614,2.162,2.1627,2.1714,2.164,2.1644,2.1647,2.1835,2.1838,2.1841,0,0,0,0,0,0,2.147,2.1481,2.1568,2.1527,2.1537,2.1544,2.157,2.157,2.1585,2.1598,2.1599,2.158,2.1612,2.1621,2.1678,2.1715,2.1646,2.165,2.1832,2.1836,2.1839,2.1887,0,0,0,0,0,0,2.1467,2.148,2.1507,2.1527,2.1539,2.1617,2.1572,2.1572,2.1592,2.1588,2.1612,2.1614,2.1611,2.1672,2.1683,2.1719,2.1653,2.1828,2.1833,2.1838,2.1883,2.1892,2.1901,0,0,0,0,0,2.1463,2.1519,2.1508,2.1519,2.1573,2.1619,2.1626,2.1622,2.1596,2.1623,2.1631,2.1613,2.171,2.1678,2.169,2.1729,2.1826,2.1832,2.1838,2.1878,2.1891,2.1901,0,0,0,0,0,0,2.1502,2.1521,2.151,2.1574,2.1595,2.1614,2.1648,2.1635,2.1664,2.1659,2.1653,2.1659,2.1719,2.173,2.1695,2.1801,2.1764,2.1772,2.1791,2.1803,2.1812,2.1807,2.1657,0,0,0,0,0,2.1519,2.1554,2.1569,2.1624,2.1636,2.164,2.166,2.1655,2.1677,2.1686,2.1699,2.1722,2.1757,2.1781,2.1814,2.1885,2.189,2.1917,2.1927,2.1934,2.1941,2.198,2.1992,2.186,2.186,2.186,0,0,2.1552,2.1567,2.159,2.1633,2.1649,2.1687,2.1648,2.1689,2.1718,2.1693,2.1747,2.1758,2.1784,2.1848,2.1877,2.1859,2.1979,2.1941,2.1947,2.195,2.1987,2.2,2.2011,2.1864,2.1863,2.1862,0,0,2.1633,2.1648,2.1695,2.1712,2.1737,2.174,2.1752,2.1773,2.1778,2.1833,2.1816,2.185,2.1912,2.1931,2.1948,2.2039,2.2023,2.205,2.2098,2.2136,2.2146,2.2155,2.2187,2.2199,2.2058,2.2058,2.2058,0,2.1671,2.1727,2.1721,2.1764,2.1784,2.1764,2.1813,2.183,2.1865,2.1879,2.1859,2.1936,2.1952,2.2021,2.2043,2.2058,2.2072,2.2046,2.2145,2.2154,2.2163,2.2193,2.2205,2.2061,2.206,2.206,2.206,0,2.1773,2.1812,2.1848,2.1882,2.1906,2.1952,2.1954,2.198,2.1974,2.1979,2.2037,2.2055,2.2092,2.2109,2.2103,2.2178,2.2166,2.2145,2.2108,2.2178,2.2207,2.2219,2.2065,2.2064,2.2063,2.2062,0,0,2.1877,2.1909,2.1922,2.1938,2.1965,2.1995,2.2041,2.2077,2.2099,2.2125,2.2164,2.2217,2.2199,2.2219,2.2216,2.225,2.232,2.2225,2.2226,2.2242,2.2404,2.2418,2.2432,2.2311,2.2313,2.2315,2.2402,0,2.1958,2.2037,2.2035,2.2108,2.2145,2.2128,2.2168,2.219,2.2197,2.223,2.2239,2.2277,2.225,2.2262,2.2295,2.2305,2.2353,2.2299,2.2347,2.2349,2.234,2.2447,2.2461,2.2542,2.2413,2.2415,2.2416,0,2.2063,2.2092,2.2169,2.2192,2.2207,2.2243,2.2277,2.2308,2.2334,2.2337,2.2361,2.2353,2.2401,2.2363,2.243,2.2393,2.2414,2.2422,2.2425,2.2428,2.2386,2.2452,2.2568,2.2579,2.2434,2.2433,2.2431,0,2.213,2.2189,2.2243,2.2257,2.2285,2.2311,2.2324,2.2347,2.2369,2.2399,2.2414,2.245,2.2469,2.2498,2.25,2.2473,2.2568,2.253,2.2572,2.2572,2.2591,2.2589,2.271,2.2606,2.2606,2.2606,2.2606,0,2.222,2.2268,2.2273,2.2306,2.236,2.2358,2.2412,2.2423,2.2444,2.2479,2.2468,2.2502,2.2504,2.2539,2.2542,2.2597,2.2606,2.261,2.261,2.261,2.261,2.2622,2.2616,2.2609,2.2608,2.2608,2.2607,0,2.2303,2.2309,2.2366,2.2389,2.2396,2.2434,2.2454,2.2486,2.2494,2.2539,2.255,2.2562,2.2603,2.2609,2.2657,2.2659,2.2725,2.272,2.2716,2.2715,2.2755,2.2751,2.2888,2.2905,2.2791,2.2792,2.2793,0,2.2359,2.2395,2.2422,2.2445,2.246,2.2497,2.252,2.2521,2.2545,2.2578,2.2606,2.2647,2.2678,2.2746,2.2759,2.2797,2.2791,2.2837,2.2797,2.2796,2.2791,2.2788,2.2792,2.2844,2.2845,2.2846,2.2847,0,2.2458,2.2459,2.2492,2.2527,2.2555,2.2582,2.2608,2.2628,2.2632,2.2661,2.2703,2.2728,2.2778,2.2818,2.2856,2.287,2.286,2.286,2.2871,2.2871,2.2867,2.2869,2.2736,2.2856,2.2855,2.2854,2.2854,2.2854,2.2528,2.256,2.2584,2.2622,2.2642,2.2667,2.2698,2.271,2.2745,2.2785,2.2784,2.283,2.2857,2.2906,2.2924,2.2961,2.2946,2.2963,2.2967,2.297,2.2974,2.2863,2.2968,2.2968,2.2967,2.2967,2.2967,0,2.2625,2.264,2.2675,2.2712,2.2742,2.273,2.2759,2.2785,2.2826,2.2851,2.2883,2.2932,2.2972,2.2989,2.3029,2.3055,2.3051,2.3065,2.3062,2.3066,2.2985,2.2971,2.3068,2.3068,2.3068,2.3068,2.3068,2.3068,2.2679,2.2732,2.2737,2.2801,2.2816,2.2861,2.2878,2.2902,2.2922,2.2977,2.301,2.3021,2.3044,2.3085,2.3121,2.3126,2.314,2.3156,2.3158,2.3082,2.3072,2.3062,2.3048,2.316,2.316,2.3236,2.3237,2.3237]},{"header":{"parameterUnit":"m.s-1","parameterCategory":1,"la1":30.2991,"la2":30.254,"lo1":-89.0895,"lo2":-89.0444,"dy":0.0017,"dx":0.0017,"nx":28,"ny":28,"refTime":"2023-10-20T21:00:00:Z","depth":0,"parameterNumber":3,"parameterNumberName":"V-component_of_WINDS"},"data":[0,0,0,0,0,0,0,0,0,0,0,0,0,0,0,0,0,0,0,0,0,0,0,0,0,0,0,0,0,0,0,0,0,0,0,0,0,0,0,0,0,0,0,0,0,0,0,0,0,0,0,0,0,0,0,0,0,0,1.7236,1.7237,0,1.7282,1.7283,1.7283,1.7262,1.726,1.7259,1.7258,1.7303,1.7305,1.7307,0,0,0,0,0,0,0,0,0,0,0,0,0,1.7128,1.713,1.7236,1.7237,1.7238,1.7282,1.7283,1.7283,1.7262,1.726,1.7259,1.7258,1.7302,1.7305,1.7307,0,0,0,0,0,0,0,0,0,0,0,0,0,1.7175,1.7131,1.7236,1.7232,1.7232,1.7282,1.7283,1.7283,1.7262,1.726,1.7259,1.7257,1.7301,1.7304,1.7308,1.7363,0,0,1.7318,1.732,0,0,0,0,0,0,0,0,1.7172,1.7179,1.7232,1.7233,1.7233,1.7264,1.7261,1.731,1.7263,1.7251,1.7258,1.7256,1.7291,1.7295,1.7308,1.7365,1.7367,1.7318,1.7321,1.7322,1.7323,0,0,0,0,0,0,0,1.7169,1.7176,1.7254,1.7233,1.7233,1.7227,1.7232,1.727,1.728,1.7252,1.725,1.7256,1.7291,1.7304,1.7309,1.7368,1.7318,1.7321,1.7323,1.7325,1.7473,1.7475,0,0,0,0,0,0,1.7166,1.7174,1.7253,1.7256,1.7198,1.7231,1.7236,1.7256,1.728,1.7282,1.7257,1.7255,1.7299,1.7305,1.731,1.7377,1.7322,1.7325,1.7327,1.7471,1.7473,1.7475,0,0,0,0,0,0,1.7164,1.7173,1.7251,1.7215,1.7224,1.7234,1.7257,1.7258,1.7271,1.7284,1.7285,1.727,1.7298,1.7305,1.735,1.7378,1.7327,1.733,1.7469,1.7472,1.7474,1.7511,0,0,0,0,0,0,1.7161,1.7173,1.7195,1.7215,1.7226,1.7292,1.7259,1.726,1.7277,1.7274,1.7296,1.7298,1.7298,1.7345,1.7354,1.7382,1.7332,1.7466,1.747,1.7473,1.7507,1.7514,1.7521,0,0,0,0,0,1.7157,1.7202,1.7196,1.7205,1.7254,1.7293,1.7299,1.7299,1.728,1.7301,1.7309,1.7297,1.7373,1.735,1.7359,1.7389,1.7465,1.7469,1.7473,1.7504,1.7513,1.752,0,0,0,0,0,0,1.7184,1.7205,1.7198,1.7252,1.7271,1.729,1.7317,1.7309,1.7333,1.7329,1.7327,1.7332,1.7379,1.7388,1.7362,1.7443,1.7416,1.7422,1.7436,1.7445,1.7451,1.7449,1.7335,0,0,0,0,0,1.7196,1.7228,1.7244,1.729,1.73,1.7307,1.7324,1.7322,1.7342,1.7349,1.7361,1.738,1.7408,1.7427,1.7453,1.7508,1.7512,1.7532,1.7539,1.7545,1.755,1.758,1.7589,1.7489,1.7489,1.7489,0,0,1.7222,1.7237,1.7257,1.7295,1.731,1.7342,1.7314,1.7348,1.7372,1.7354,1.7398,1.7407,1.7428,1.7478,1.75,1.7487,1.7579,1.755,1.7554,1.7557,1.7585,1.7595,1.7603,1.7492,1.7492,1.7491,0,0,1.7285,1.73,1.734,1.7355,1.7378,1.7382,1.7392,1.7412,1.7417,1.7461,1.7449,1.7476,1.7524,1.754,1.7554,1.7622,1.7611,1.763,1.7666,1.7695,1.7703,1.771,1.7735,1.7743,1.7636,1.7636,1.7636,0,1.7314,1.7362,1.7361,1.7397,1.7414,1.74,1.744,1.7455,1.7485,1.7496,1.7481,1.7542,1.7555,1.7608,1.7625,1.7636,1.7647,1.7629,1.7702,1.7709,1.7715,1.7739,1.7748,1.7638,1.7638,1.7638,1.7638,0,1.7397,1.743,1.7459,1.749,1.751,1.7547,1.7551,1.7571,1.7567,1.7573,1.7617,1.7632,1.7662,1.7674,1.767,1.7727,1.7718,1.7702,1.7675,1.7727,1.7749,1.7758,1.7642,1.7641,1.764,1.7639,0,0,1.748,1.7508,1.7519,1.7533,1.7556,1.7582,1.7618,1.7648,1.7665,1.7686,1.7716,1.7757,1.7743,1.7759,1.7757,1.7782,1.7835,1.7763,1.7763,1.7776,1.7899,1.7911,1.7921,1.7828,1.7829,1.7831,1.7897,0,1.7545,1.761,1.761,1.767,1.77,1.7687,1.7719,1.7736,1.7742,1.7768,1.7774,1.7804,1.7782,1.7792,1.7816,1.7824,1.786,1.7818,1.7856,1.7857,1.7852,1.7933,1.7946,1.8008,1.7906,1.7907,1.7908,0,1.763,1.7655,1.7718,1.7737,1.775,1.7779,1.7806,1.7831,1.785,1.7852,1.787,1.7863,1.79,1.787,1.792,1.7892,1.7907,1.7912,1.7915,1.7919,1.7887,1.794,1.8028,1.8038,1.7922,1.792,1.7919,0,1.7685,1.7734,1.7778,1.779,1.7813,1.7833,1.7844,1.7861,1.7879,1.7902,1.7913,1.7939,1.7954,1.7974,1.7975,1.7953,1.8025,1.7995,1.8028,1.8028,1.8045,1.8044,1.8137,1.8053,1.8052,1.8052,1.8052,0,1.7759,1.7798,1.7803,1.783,1.7873,1.7872,1.7914,1.7923,1.7938,1.7966,1.7956,1.7982,1.7981,1.8007,1.8007,1.8048,1.8055,1.8058,1.8057,1.8059,1.8059,1.807,1.8066,1.8055,1.8054,1.8054,1.8053,0,1.7828,1.7833,1.788,1.7898,1.7903,1.7935,1.795,1.7975,1.798,1.8015,1.8023,1.803,1.8061,1.8063,1.8098,1.8098,1.8148,1.8143,1.8142,1.8142,1.8174,1.8171,1.8279,1.8293,1.8198,1.8199,1.82,0,1.7875,1.7905,1.7927,1.7945,1.7957,1.7987,1.8005,1.8004,1.8023,1.8047,1.8069,1.8099,1.8122,1.8172,1.8179,1.8206,1.8201,1.8237,1.8205,1.8206,1.8203,1.8201,1.8205,1.8244,1.8245,1.8245,1.8246,0,1.7959,1.796,1.7987,1.8014,1.8036,1.8058,1.8078,1.8093,1.8094,1.8116,1.8148,1.8166,1.8202,1.8231,1.8257,1.8267,1.8257,1.8256,1.8265,1.8268,1.8267,1.8268,1.816,1.8254,1.8253,1.8252,1.8252,1.8252,1.8019,1.8045,1.8065,1.8095,1.811,1.8129,1.8154,1.8161,1.8188,1.8218,1.8215,1.825,1.8267,1.8301,1.8313,1.8339,1.8327,1.834,1.8344,1.8347,1.8351,1.8261,1.8344,1.8344,1.8343,1.8343,1.8343,0,1.8103,1.8114,1.8142,1.8171,1.8194,1.8183,1.8204,1.8225,1.8256,1.8273,1.8297,1.8333,1.8361,1.8371,1.8398,1.8418,1.8414,1.8425,1.8424,1.8426,1.836,1.835,1.8428,1.8428,1.8428,1.8428,1.8428,1.8428,1.8149,1.8193,1.8196,1.8247,1.8258,1.8292,1.8306,1.8323,1.8337,1.8378,1.8402,1.8408,1.8422,1.845,1.8475,1.8477,1.8488,1.8502,1.8502,1.844,1.8431,1.8423,1.8414,1.8504,1.8504,1.8566,1.8567,1.8567]}]]